Regional Weather Roundup
Issued by NWS

Home | Current Version | Previous Version | Graphics & Text | Print | Product List | Glossary On
Versions: 1 2 3 4 5 6 7 8 9 10 11 12 13 14 15 16 17 18 19 20 21 22 23 24 25 26 27 28 29 30 31 32 33 34 35 36 37 38 39 40 41 42 43 44 45 46 47 48 49 50
000
ASUS43 KLSX 261559
RWRMO

WEATHER SUMMARY FOR MISSOURI
NATIONAL WEATHER SERVICE SPRINGFIELD MO
1000 AM CST MON JAN 26 2015

NOTE: "FAIR" INDICATES FEW OR NO CLOUDS BELOW 12,000 FEET WITH NO
       SIGNIFICANT WEATHER AND/OR OBSTRUCTIONS TO VISIBILITY.
       CURRENT SKY AND/OR WEATHER CONDITIONS ARE NOT AVAILABLE FOR
       CHILLICOTHE AND FARMINGTON.

MOZ001>031-035>038-043-044-053-054-261700-
...NORTHERN AND WESTERN MISSOURI...

CITY           SKY/WX    TMP DP  RH WIND       PRES   REMARKS
KANSAS CTY INT MOSUNNY   38  32  79 SW15      29.93F WCI  29
KANSAS C DTWN  SUNNY     42  31  64 SW10      29.96F
LEE`S SUMMIT   SUNNY     39  31  72 SW15G23   29.95F
ST JOSEPH      SUNNY     38  32  79 SW12      29.94F
CHILLICOTHE      N/A     38  30  73 SW10G18   29.93F
KIRKSVILLE     CLOUDY    34  31  88 SW12      29.90F WCI  25

$$
MOZ066>068-077>081-088>096-101>105-261700-
...SOUTHWEST MISSOURI...

CITY           SKY/WX    TMP DP  RH WIND       PRES   REMARKS
SPRINGFIELD    SUNNY     38  30  73 SW9       30.06S
JOPLIN         SUNNY     40  32  73 SW13      30.07F

$$
MOZ032>034-039>042-045>050-055>058-069>072-261700-
...CENTRAL MISSOURI...

CITY           SKY/WX    TMP DP  RH WIND       PRES   REMARKS
COLUMBIA       CLOUDY    35  31  85 SW12      30.01F WCI  27
JEFFERSON CITY MOSUNNY   37  30  75 SW10      30.03F WCI  30
ROLLA          PTSUNNY   33  28  81 SW10      30.02F WCI  25
SEDALIA        SUNNY     38  31  76 SW15G22   30.01F WCI  29
OSAGE BEACH    SUNNY     37  28  70 SW10      30.04F

$$
MOZ051-052-059>065-261700-
...EAST CENTRAL MISSOURI...

CITY           SKY/WX    TMP DP  RH WIND       PRES   REMARKS
ST LOUIS INTL  CLOUDY    32  24  72 W7        30.05F WCI  26
SPIRIT OF STL  CLOUDY    31  25  78 W5        30.05F WCI  26
ST CHARLES     CLOUDY    29  24  82 SW5       30.04F WCI  24

$$
MOZ072>076-082>087-097>100-106>115-261700-
...SOUTH CENTRAL AND SOUTHEAST MISSOURI...

CITY           SKY/WX    TMP DP  RH WIND       PRES   REMARKS
CAPE GIRARDEAU PTSUNNY   34  26  72 NW12      30.10R WCI  25
FARMINGTON     CLOUDY    30  25  80 MISG      30.09R
POPLAR BLUFF   CLOUDY    36  27  69 W7        30.09R
WEST PLAINS    CLOUDY    35  27  72 NW7       30.08R WCI  29

$$


USA.gov is the U.S. government's official web portal to all federal, state and local government web resources and services.